Time,TemperatureF,DewpointF,PressureIn,WindDirection,WindDirectionDegrees,WindSpeedMPH,WindSpeedGustMPH,Humidity,HourlyPrecipIn,Conditions,Clouds,dailyrainin,SolarRadiationWatts/m^2,SoftwareType,DateUTC
2013-01-22 00:00:00,66.4,63.7,29.98,NNW,336,0.0,0.0,91,0.00,,SCT055,0.01,0.00,VWS V14.00,2013-01-22 05:00:00,
2013-01-22 00:01:00,66.4,63.7,29.98,NNW,336,0.0,0.0,91,0.00,,SCT055,0.01,0.00,VWS V14.00,2013-01-22 05:01:00,
2013-01-22 00:06:00,66.3,63.6,29.98,NNW,336,0.0,0.0,91,0.00,,SCT055,0.00,0.00,VWS V14.00,2013-01-22 05:06:00,
2013-01-22 00:11:00,66.2,63.5,29.99,NNW,336,0.0,0.0,91,0.00,,SCT055,0.00,0.00,VWS V14.00,2013-01-22 05:11:00,
2013-01-22 00:16:00,66.2,63.5,29.99,NNW,336,0.0,0.0,91,0.00,,SCT055,0.00,0.00,VWS V14.00,2013-01-22 05:16:00,
2013-01-22 00:21:00,66.1,63.4,29.99,NNW,336,0.0,3.0,91,0.00,,SCT055,0.00,0.00,VWS V14.00,2013-01-22 05:21:00,
2013-01-22 00:26:00,66.1,63.4,29.99,NNW,336,0.0,1.0,91,0.00,,SCT055,0.00,0.00,VWS V14.00,2013-01-22 05:26:00,
2013-01-22 00:31:00,66.0,63.3,29.99,NNW,336,3.0,3.0,91,0.00,,SCT055,0.00,0.00,VWS V14.00,2013-01-22 05:31:00,
2013-01-22 00:36:00,65.9,63.5,29.99,NNW,336,0.0,1.0,92,0.00,,SCT055,0.00,0.00,VWS V14.00,2013-01-22 05:36:00,
2013-01-22 00:41:00,65.9,63.5,29.98,NNW,336,0.0,0.0,92,0.00,,SCT055,0.00,0.00,VWS V14.00,2013-01-22 05:41:00,
2013-01-22 00:46:00,65.8,63.4,29.99,NNW,336,0.0,0.0,92,0.00,,SCT055,0.00,0.00,VWS V14.00,2013-01-22 05:46:00,
2013-01-22 00:51:00,65.8,63.4,29.98,NNW,336,0.0,0.0,92,0.00,,SCT055,0.00,0.00,VWS V14.00,2013-01-22 05:51:00,
2013-01-22 00:57:00,65.7,63.3,29.98,NNW,336,0.0,0.0,92,0.00,,SCT055,0.00,0.00,VWS V14.00,2013-01-22 05:57:00,
2013-01-22 01:01:00,65.7,63.3,29.98,NNW,336,0.0,0.0,92,0.00,,SCT055,0.00,0.00,VWS V14.00,2013-01-22 06:01:00,
2013-01-22 01:06:00,65.6,63.2,29.98,NNW,336,0.0,0.0,92,0.00,,SCT055,0.00,0.00,VWS V14.00,2013-01-22 06:06:00,
2013-01-22 01:11:00,65.6,63.2,29.98,NNW,336,0.0,0.0,92,0.00,,SCT055,0.00,0.00,VWS V14.00,2013-01-22 06:11:00,
2013-01-22 01:16:00,65.5,63.1,29.98,NNW,336,0.0,1.0,92,0.00,,SCT055,0.00,0.00,VWS V14.00,2013-01-22 06:16:00,
2013-01-22 01:22:00,65.4,63.0,29.97,NNW,336,0.0,0.0,92,0.00,,SCT055,0.00,0.00,VWS V14.00,2013-01-22 06:22:00,
2013-01-22 01:27:00,65.4,63.0,29.98,NNW,336,0.0,0.0,92,0.00,,SCT055,0.00,0.00,VWS V14.00,2013-01-22 06:27:00,
2013-01-22 01:32:00,65.3,62.9,29.97,NNW,336,0.0,0.0,92,0.00,,SCT055,0.00,0.00,VWS V14.00,2013-01-22 06:32:00,
2013-01-22 01:37:00,65.3,62.9,29.97,NNW,336,0.0,0.0,92,0.00,,SCT055,0.00,0.00,VWS V14.00,2013-01-22 06:37:00,
2013-01-22 01:42:00,65.3,62.9,29.97,NNW,336,0.0,1.0,92,0.00,,SCT055,0.00,0.00,VWS V14.00,2013-01-22 06:42:00,
2013-01-22 01:47:00,65.2,62.8,29.97,NNW,336,0.0,3.0,92,0.00,,SCT055,0.00,0.00,VWS V14.00,2013-01-22 06:47:00,
2013-01-22 01:52:00,65.1,62.7,29.97,NNW,336,0.0,4.0,92,0.00,,SCT055,0.00,0.00,VWS V14.00,2013-01-22 06:52:00,
2013-01-22 01:57:00,65.1,62.7,29.97,NNW,336,0.0,1.0,92,0.00,,SCT055,0.00,0.00,VWS V14.00,2013-01-22 06:57:00,
2013-01-22 02:02:00,65.2,62.8,29.97,NNW,336,0.0,0.0,92,0.00,,SCT055,0.00,0.00,VWS V14.00,2013-01-22 07:02:00,
2013-01-22 02:07:00,65.1,62.7,29.97,NNW,336,2.0,2.0,92,0.00,,SCT055,0.00,0.00,VWS V14.00,2013-01-22 07:07:00,
2013-01-22 02:12:00,65.1,62.7,29.97,NNW,336,3.0,4.0,92,0.00,,SCT055,0.00,0.00,VWS V14.00,2013-01-22 07:12:00,
2013-01-22 02:17:00,65.1,62.7,29.97,NNW,336,0.0,3.0,92,0.00,,SCT055,0.00,0.00,VWS V14.00,2013-01-22 07:17:00,
2013-01-22 02:22:00,65.2,62.8,29.97,NNW,336,2.0,3.0,92,0.00,,SCT055,0.00,0.00,VWS V14.00,2013-01-22 07:22:00,
2013-01-22 02:27:00,65.2,62.8,29.97,NNW,337,2.0,4.0,92,0.00,,SCT055,0.00,0.00,VWS V14.00,2013-01-22 07:27:00,
2013-01-22 02:32:00,65.1,62.7,29.97,NNW,338,0.0,5.0,92,0.00,,SCT055,0.00,0.00,VWS V14.00,2013-01-22 07:32:00,
2013-01-22 02:37:00,65.0,62.6,29.97,NNW,338,0.0,4.0,92,0.00,,SCT055,0.00,0.00,VWS V14.00,2013-01-22 07:37:00,
2013-01-22 02:42:00,65.0,62.6,29.97,NNW,338,1.0,4.0,92,0.00,,SCT055,0.00,0.00,VWS V14.00,2013-01-22 07:42:00,
2013-01-22 02:47:00,64.9,62.5,29.96,NNW,338,3.0,5.0,92,0.00,,SCT055,0.00,0.00,VWS V14.00,2013-01-22 07:47:00,
2013-01-22 02:52:00,64.8,62.4,29.97,NNW,338,0.0,2.0,92,0.00,,SCT055,0.00,0.00,VWS V14.00,2013-01-22 07:52:00,
2013-01-22 02:57:00,64.8,62.4,29.97,NNW,338,0.0,3.0,92,0.00,,SCT055,0.00,0.00,VWS V14.00,2013-01-22 07:57:00,
2013-01-22 03:02:00,64.8,62.4,29.97,NNW,338,0.0,5.0,92,0.00,,SCT055,0.00,0.00,VWS V14.00,2013-01-22 08:02:00,
2013-01-22 03:07:00,64.7,62.3,29.97,NNW,338,4.0,4.0,92,0.00,,SCT055,0.00,0.00,VWS V14.00,2013-01-22 08:07:00,
2013-01-22 03:12:00,64.7,62.3,29.97,NNW,339,2.0,5.0,92,0.00,,SCT055,0.00,0.00,VWS V14.00,2013-01-22 08:12:00,
2013-01-22 03:17:00,64.6,62.2,29.96,NNW,340,0.0,3.0,92,0.00,,SCT055,0.00,0.00,VWS V14.00,2013-01-22 08:17:00,
2013-01-22 03:22:00,64.5,62.1,29.96,NNW,343,4.0,4.0,92,0.00,,SCT055,0.00,0.00,VWS V14.00,2013-01-22 08:22:00,
2013-01-22 03:27:00,64.4,62.0,29.96,NNW,344,3.0,6.0,92,0.00,,SCT055,0.00,0.00,VWS V14.00,2013-01-22 08:27:00,
2013-01-22 03:32:00,64.4,62.0,29.97,NNW,344,4.0,7.0,92,0.00,,SCT055,0.00,0.00,VWS V14.00,2013-01-22 08:32:00,
2013-01-22 03:37:00,64.3,61.9,29.96,NNW,344,0.0,2.0,92,0.00,,SCT055,0.00,0.00,VWS V14.00,2013-01-22 08:37:00,
2013-01-22 03:42:00,64.3,61.9,29.97,NNW,344,0.0,3.0,92,0.00,,SCT055,0.00,0.00,VWS V14.00,2013-01-22 08:42:00,
2013-01-22 03:47:00,64.3,61.9,29.97,NNW,345,4.0,6.0,92,0.00,,SCT055,0.00,0.00,VWS V14.00,2013-01-22 08:47:00,
2013-01-22 03:52:00,64.3,61.9,29.97,NNW,345,0.0,1.0,92,0.00,,SCT055,0.00,0.00,VWS V14.00,2013-01-22 08:52:00,
2013-01-22 03:57:00,64.3,61.9,29.97,NNW,345,0.0,0.0,92,0.00,,SCT055,0.00,0.00,VWS V14.00,2013-01-22 08:57:00,
2013-01-22 04:02:00,64.2,61.8,29.97,NNW,345,0.0,0.0,92,0.00,,SCT055,0.00,0.00,VWS V14.00,2013-01-22 09:02:00,
2013-01-22 04:07:00,64.2,61.8,29.97,NNW,345,0.0,2.0,92,0.00,,SCT055,0.00,0.00,VWS V14.00,2013-01-22 09:07:00,
2013-01-22 04:12:00,64.1,61.7,29.97,NNW,345,0.0,4.0,92,0.00,,SCT055,0.00,0.00,VWS V14.00,2013-01-22 09:12:00,
2013-01-22 04:17:00,64.0,61.6,29.96,NNW,345,1.0,3.0,92,0.00,,SCT055,0.00,0.00,VWS V14.00,2013-01-22 09:17:00,
2013-01-22 04:22:00,63.9,61.2,29.97,NNW,345,0.0,3.0,91,0.00,,SCT055,0.00,0.00,VWS V14.00,2013-01-22 09:22:00,
2013-01-22 04:27:00,63.9,61.5,29.97,NNW,345,0.0,5.0,92,0.00,,SCT055,0.00,0.00,VWS V14.00,2013-01-22 09:27:00,
2013-01-22 04:32:00,63.8,61.1,29.97,NNW,345,0.0,1.0,91,0.00,,SCT055,0.00,0.00,VWS V14.00,2013-01-22 09:32:00,
2013-01-22 04:37:00,63.7,61.0,29.97,NNW,345,2.0,3.0,91,0.00,,SCT055,0.00,0.00,VWS V14.00,2013-01-22 09:37:00,
2013-01-22 04:42:00,63.6,60.9,29.97,NNW,345,1.0,3.0,91,0.00,,SCT055,0.00,0.00,VWS V14.00,2013-01-22 09:42:00,
2013-01-22 04:47:00,63.6,60.9,29.97,NNW,345,2.0,3.0,91,0.00,,SCT055,0.00,0.00,VWS V14.00,2013-01-22 09:47:00,
2013-01-22 04:52:00,63.5,60.8,29.97,NNW,345,3.0,3.0,91,0.00,,SCT055,0.00,0.00,VWS V14.00,2013-01-22 09:52:00,
2013-01-22 04:57:00,63.5,60.8,29.97,NNW,345,3.0,5.0,91,0.00,,SCT055,0.00,0.00,VWS V14.00,2013-01-22 09:57:00,
2013-01-22 05:02:00,63.4,60.7,29.97,NNW,345,4.0,6.0,91,0.00,,SCT055,0.00,0.00,VWS V14.00,2013-01-22 10:02:00,
2013-01-22 05:07:00,63.5,60.8,29.98,NNW,345,1.0,6.0,91,0.00,,SCT055,0.00,0.00,VWS V14.00,2013-01-22 10:07:00,
2013-01-22 05:12:00,63.5,60.8,29.98,NNW,346,0.0,4.0,91,0.00,,SCT055,0.00,0.00,VWS V14.00,2013-01-22 10:12:00,
2013-01-22 05:17:00,63.5,60.8,29.98,NNW,346,2.0,5.0,91,0.00,,SCT055,0.00,0.00,VWS V14.00,2013-01-22 10:17:00,
2013-01-22 05:22:00,63.6,60.9,29.98,NNW,346,0.0,3.0,91,0.00,,SCT055,0.00,0.00,VWS V14.00,2013-01-22 10:22:00,
2013-01-22 05:28:00,63.7,61.0,29.98,NNW,347,3.0,6.0,91,0.00,,SCT055,0.00,0.00,VWS V14.00,2013-01-22 10:28:00,
2013-01-22 05:32:00,63.7,60.7,29.99,NNW,347,3.0,7.0,90,0.00,,SCT055,0.00,0.00,VWS V14.00,2013-01-22 10:32:00,
2013-01-22 05:38:00,63.7,60.7,29.99,NNW,348,2.0,4.0,90,0.00,,SCT055,0.00,0.00,VWS V14.00,2013-01-22 10:38:00,
2013-01-22 05:42:00,63.7,60.7,29.99,North,349,0.0,5.0,90,0.00,,SCT055,0.00,0.00,VWS V14.00,2013-01-22 10:42:00,
2013-01-22 05:48:00,63.8,60.8,29.99,North,349,4.0,6.0,90,0.00,,SCT055,0.00,0.00,VWS V14.00,2013-01-22 10:48:00,
2013-01-22 05:53:00,63.7,60.7,29.99,North,349,3.0,3.0,90,0.00,,SCT055,0.00,0.00,VWS V14.00,2013-01-22 10:53:00,
2013-01-22 05:58:00,63.6,60.6,29.99,North,349,1.0,5.0,90,0.00,,SCT055,0.00,0.00,VWS V14.00,2013-01-22 10:58:00,
2013-01-22 06:03:00,63.6,60.6,30.00,North,349,0.0,3.0,90,0.00,,SCT055,0.00,0.00,VWS V14.00,2013-01-22 11:03:00,
2013-01-22 06:08:00,63.5,60.5,30.00,North,355,0.0,4.0,90,0.00,,SCT055,0.00,0.00,VWS V14.00,2013-01-22 11:08:00,
2013-01-22 06:13:00,63.5,60.5,30.00,North,355,0.0,2.0,90,0.00,,SCT055,0.00,0.00,VWS V14.00,2013-01-22 11:13:00,
2013-01-22 06:18:00,63.3,60.3,30.00,North,351,1.0,4.0,90,0.00,,SCT055,0.00,0.00,VWS V14.00,2013-01-22 11:18:00,
2013-01-22 06:23:00,63.2,60.2,30.01,North,351,3.0,3.0,90,0.00,,SCT055,0.00,0.00,VWS V14.00,2013-01-22 11:23:00,
2013-01-22 06:28:00,63.0,60.0,30.01,NNW,348,2.0,4.0,90,0.00,,SCT055,0.00,0.00,VWS V14.00,2013-01-22 11:28:00,
2013-01-22 06:33:00,62.8,59.8,30.01,NNW,347,1.0,4.0,90,0.00,,SCT055,0.00,0.00,VWS V14.00,2013-01-22 11:33:00,
2013-01-22 06:38:00,62.7,59.7,30.02,North,355,0.0,0.0,90,0.00,,SCT055,0.00,0.00,VWS V14.00,2013-01-22 11:38:00,
2013-01-22 06:43:00,62.6,60.2,30.01,North,355,1.0,4.0,92,0.00,,SCT055,0.00,0.00,VWS V14.00,2013-01-22 11:43:00,
2013-01-22 06:48:00,62.6,59.6,30.01,North,355,3.0,4.0,90,0.00,,SCT055,0.00,0.00,VWS V14.00,2013-01-22 11:48:00,
2013-01-22 06:53:00,62.5,59.5,30.02,North,355,0.0,1.0,90,0.00,,SCT055,0.00,0.00,VWS V14.00,2013-01-22 11:53:00,
2013-01-22 06:58:00,62.4,59.4,30.02,North,355,1.0,4.0,90,0.00,,SCT055,0.00,0.00,VWS V14.00,2013-01-22 11:58:00,
2013-01-22 07:03:00,62.4,59.4,30.02,North,355,0.0,5.0,90,0.00,,SCT055,0.00,0.00,VWS V14.00,2013-01-22 12:03:00,
2013-01-22 07:08:00,62.4,59.4,30.02,North,355,0.0,3.0,90,0.00,,SCT055,0.00,0.00,VWS V14.00,2013-01-22 12:08:00,
2013-01-22 07:13:00,62.4,59.4,30.02,North,355,0.0,3.0,90,0.00,,SCT055,0.00,0.00,VWS V14.00,2013-01-22 12:13:00,
2013-01-22 07:18:00,62.3,59.3,30.02,North,355,0.0,4.0,90,0.00,,SCT055,0.00,0.00,VWS V14.00,2013-01-22 12:18:00,
2013-01-22 07:23:00,62.5,59.5,30.03,North,355,2.0,2.0,90,0.00,,SCT055,0.00,7.00,VWS V14.00,2013-01-22 12:23:00,
2013-01-22 07:28:00,62.5,59.5,30.03,North,355,4.0,4.0,90,0.00,,SCT055,0.00,11.00,VWS V14.00,2013-01-22 12:28:00,
2013-01-22 07:33:00,62.7,59.7,30.03,North,355,4.0,4.0,90,0.00,,SCT080,0.00,11.00,VWS V14.00,2013-01-22 12:33:00,
2013-01-22 07:38:00,62.8,59.8,30.04,North,355,2.0,6.0,90,0.00,,SCT080,0.00,18.00,VWS V14.00,2013-01-22 12:38:00,
2013-01-22 07:43:00,63.0,60.0,30.04,North,355,3.0,11.0,90,0.00,,SCT080,0.00,33.00,VWS V14.00,2013-01-22 12:43:00,
2013-01-22 07:48:00,63.1,59.8,30.04,North,360,2.0,6.0,89,0.00,,SCT080,0.00,37.00,VWS V14.00,2013-01-22 12:48:00,
2013-01-22 07:53:00,63.3,59.7,30.04,North,360,6.0,11.0,88,0.00,,SCT080,0.00,37.00,VWS V14.00,2013-01-22 12:53:00,
2013-01-22 07:58:00,63.4,59.8,30.04,North,355,9.0,9.0,88,0.00,,SCT080,0.00,40.00,VWS V14.00,2013-01-22 12:58:00,
2013-01-22 08:03:00,63.5,59.9,30.04,NNW,348,3.0,6.0,88,0.00,,SCT080,0.00,30.00,VWS V14.00,2013-01-22 13:03:00,
2013-01-22 08:08:00,63.3,59.4,30.05,North,349,5.0,8.0,87,0.00,,SCT080,0.00,35.00,VWS V14.00,2013-01-22 13:08:00,
2013-01-22 08:13:00,63.2,59.6,30.05,North,349,8.0,10.0,88,0.00,,SCT080,0.00,47.00,VWS V14.00,2013-01-22 13:13:00,
2013-01-22 08:18:00,63.2,59.6,30.05,North,5,5.0,10.0,88,0.00,,SCT080,0.00,56.00,VWS V14.00,2013-01-22 13:18:00,
2013-01-22 08:23:00,63.3,59.4,30.06,North,5,2.0,6.0,87,0.00,,SCT080,0.00,46.00,VWS V14.00,2013-01-22 13:23:00,
2013-01-22 08:28:00,63.4,59.5,30.06,North,5,5.0,9.0,87,0.00,,SCT080,0.00,49.00,VWS V14.00,2013-01-22 13:28:00,
2013-01-22 08:33:00,63.5,59.6,30.06,North,5,5.0,10.0,87,0.00,,SCT100,0.00,54.00,VWS V14.00,2013-01-22 13:33:00,
2013-01-22 08:38:00,63.8,59.5,30.06,North,5,9.0,11.0,86,0.00,,SCT100,0.00,54.00,VWS V14.00,2013-01-22 13:38:00,
2013-01-22 08:43:00,63.9,59.3,30.06,North,9,4.0,11.0,85,0.00,,SCT100,0.00,79.00,VWS V14.00,2013-01-22 13:43:00,
2013-01-22 08:48:00,64.1,59.5,30.06,NNE,12,5.0,9.0,85,0.00,,SCT100,0.00,65.00,VWS V14.00,2013-01-22 13:48:00,
2013-01-22 08:53:00,64.3,59.4,30.06,NNE,21,7.0,10.0,84,0.00,,SCT100,0.00,67.00,VWS V14.00,2013-01-22 13:53:00,
2013-01-22 08:58:00,64.4,59.5,30.06,NNE,18,7.0,12.0,84,0.00,,SCT100,0.00,121.00,VWS V14.00,2013-01-22 13:58:00,
2013-01-22 09:03:00,64.5,59.2,30.06,NNE,24,7.0,11.0,83,0.00,,SCT100,0.00,97.00,VWS V14.00,2013-01-22 14:03:00,
2013-01-22 09:09:00,64.7,59.4,30.06,NNE,16,9.0,14.0,83,0.00,,SCT100,0.00,97.00,VWS V14.00,2013-01-22 14:09:00,
2013-01-22 09:14:00,65.0,59.7,30.06,North,5,4.0,9.0,83,0.00,,SCT100,0.00,111.00,VWS V14.00,2013-01-22 14:14:00,
2013-01-22 09:19:00,65.3,59.7,30.07,North,10,7.0,11.0,82,0.00,,SCT100,0.00,98.00,VWS V14.00,2013-01-22 14:19:00,
2013-01-22 09:24:00,65.5,60.2,30.07,NNE,26,6.0,7.0,83,0.00,,SCT100,0.00,83.00,VWS V14.00,2013-01-22 14:24:00,
2013-01-22 09:29:00,65.7,59.7,30.06,North,9,4.0,6.0,81,0.00,,SCT100,0.00,98.00,VWS V14.00,2013-01-22 14:29:00,
2013-01-22 09:34:00,66.0,60.0,30.07,North,9,3.0,9.0,81,0.00,,SCT100,0.00,104.00,VWS V14.00,2013-01-22 14:34:00,
2013-01-22 09:39:00,66.3,60.0,30.07,NNE,22,9.0,13.0,80,0.00,,SCT100,0.00,86.00,VWS V14.00,2013-01-22 14:39:00,
2013-01-22 09:44:00,66.4,59.7,30.07,NNE,20,7.0,7.0,79,0.00,,SCT100,0.00,83.00,VWS V14.00,2013-01-22 14:44:00,
2013-01-22 09:49:00,66.6,59.9,30.08,NNE,19,10.0,10.0,79,0.00,,SCT100,0.00,70.00,VWS V14.00,2013-01-22 14:49:00,
2013-01-22 09:54:00,66.8,59.7,30.08,NE,40,9.0,11.0,78,0.00,,SCT100,0.00,77.00,VWS V14.00,2013-01-22 14:54:00,
2013-01-22 09:59:00,67.0,59.9,30.08,NNE,30,6.0,10.0,78,0.00,,SCT100,0.00,86.00,VWS V14.00,2013-01-22 14:59:00,
2013-01-22 10:04:00,67.4,60.0,30.08,NNE,21,8.0,12.0,77,0.00,,SCT100,0.00,91.00,VWS V14.00,2013-01-22 15:04:00,
2013-01-22 10:09:00,67.7,60.2,30.08,NNE,20,10.0,11.0,77,0.00,,SCT100,0.00,88.00,VWS V14.00,2013-01-22 15:09:00,
2013-01-22 10:14:00,68.0,60.2,30.08,NNE,23,7.0,10.0,76,0.00,,SCT100,0.00,77.00,VWS V14.00,2013-01-22 15:14:00,
2013-01-22 10:19:00,68.2,60.0,30.08,NE,44,4.0,10.0,75,0.00,,SCT100,0.00,105.00,VWS V14.00,2013-01-22 15:19:00,
2013-01-22 10:24:00,68.5,60.3,30.08,NNE,28,7.0,15.0,75,0.00,,SCT100,0.00,113.00,VWS V14.00,2013-01-22 15:24:00,
2013-01-22 10:29:00,68.8,60.2,30.08,North,11,10.0,11.0,74,0.00,,SCT100,0.00,114.00,VWS V14.00,2013-01-22 15:29:00,
2013-01-22 10:34:00,69.0,60.0,30.08,NE,50,9.0,11.0,73,0.00,,SCT100,0.00,118.00,VWS V14.00,2013-01-22 15:34:00,
2013-01-22 10:39:00,69.3,60.3,30.08,NNE,22,9.0,11.0,73,0.00,,SCT100,0.00,134.00,VWS V14.00,2013-01-22 15:39:00,
2013-01-22 10:44:00,69.6,60.2,30.08,NNE,33,6.0,12.0,72,0.00,,SCT100,0.00,120.00,VWS V14.00,2013-01-22 15:44:00,
2013-01-22 10:49:00,69.8,60.0,30.08,NNE,15,6.0,13.0,71,0.00,,SCT100,0.00,137.00,VWS V14.00,2013-01-22 15:49:00,
2013-01-22 10:54:00,70.1,60.7,30.08,NNE,20,7.0,13.0,72,0.00,,SCT100,0.00,134.00,VWS V14.00,2013-01-22 15:54:00,
2013-01-22 10:59:00,70.4,60.6,30.08,NE,36,4.0,10.0,71,0.00,,SCT100,0.00,137.00,VWS V14.00,2013-01-22 15:59:00,
2013-01-22 11:04:00,71.0,61.1,30.08,NNE,31,10.0,12.0,71,0.00,,SCT100,0.00,121.00,VWS V14.00,2013-01-22 16:04:00,
2013-01-22 11:09:00,71.2,60.5,30.08,NE,44,10.0,11.0,69,0.00,,SCT100,0.00,125.00,VWS V14.00,2013-01-22 16:09:00,
2013-01-22 11:14:00,71.3,61.0,30.07,East,80,14.0,17.0,70,0.00,,SCT100,0.00,116.00,VWS V14.00,2013-01-22 16:14:00,
2013-01-22 11:19:00,71.4,60.7,30.07,ENE,57,10.0,13.0,69,0.00,,SCT100,0.00,98.00,VWS V14.00,2013-01-22 16:19:00,
2013-01-22 11:24:00,71.6,60.9,30.08,North,5,9.0,12.0,69,0.00,,SCT100,0.00,93.00,VWS V14.00,2013-01-22 16:24:00,
2013-01-22 11:29:00,71.7,61.0,30.08,NE,35,7.0,12.0,69,0.00,,SCT100,0.00,81.00,VWS V14.00,2013-01-22 16:29:00,
2013-01-22 11:34:00,71.7,60.6,30.08,ENE,72,9.0,13.0,68,0.00,,BKN250,0.00,79.00,VWS V14.00,2013-01-22 16:34:00,
2013-01-22 11:39:00,71.9,60.8,30.08,NE,39,6.0,13.0,68,0.00,,BKN250,0.00,97.00,VWS V14.00,2013-01-22 16:39:00,
2013-01-22 11:44:00,72.3,61.2,30.07,NNE,13,4.0,13.0,68,0.00,,BKN250,0.00,121.00,VWS V14.00,2013-01-22 16:44:00,
2013-01-22 11:49:00,72.2,60.7,30.07,NE,47,10.0,14.0,67,0.00,,BKN250,0.00,111.00,VWS V14.00,2013-01-22 16:49:00,
2013-01-22 11:54:00,72.5,60.9,30.07,North,5,9.0,13.0,67,0.00,,BKN250,0.00,128.00,VWS V14.00,2013-01-22 16:54:00,
2013-01-22 11:59:00,72.4,61.2,30.07,NE,36,13.0,17.0,68,0.00,,BKN250,0.00,113.00,VWS V14.00,2013-01-22 16:59:00,
2013-01-22 12:04:00,72.2,61.1,30.07,NE,53,6.0,9.0,68,0.00,,BKN250,0.00,91.00,VWS V14.00,2013-01-22 17:04:00,
2013-01-22 12:09:00,72.2,61.1,30.07,NNE,17,4.0,9.0,68,0.00,,BKN250,0.00,90.00,VWS V14.00,2013-01-22 17:09:00,
2013-01-22 12:15:00,72.2,60.7,30.07,NNE,30,6.0,11.0,67,0.00,,BKN250,0.00,109.00,VWS V14.00,2013-01-22 17:15:00,
2013-01-22 12:20:00,72.7,61.1,30.06,NNE,18,7.0,14.0,67,0.00,,BKN250,0.00,139.00,VWS V14.00,2013-01-22 17:20:00,
2013-01-22 12:25:00,73.0,61.4,30.06,ENE,59,6.0,12.0,67,0.00,,BKN250,0.00,127.00,VWS V14.00,2013-01-22 17:25:00,
2013-01-22 12:30:00,73.0,61.4,30.06,ENE,64,10.0,13.0,67,0.00,,BKN250,0.00,169.00,VWS V14.00,2013-01-22 17:30:00,
2013-01-22 12:35:00,73.4,61.8,30.05,NE,36,5.0,6.0,67,0.00,,BKN250,0.00,137.00,VWS V14.00,2013-01-22 17:35:00,
2013-01-22 12:40:00,73.4,60.5,30.06,NNE,26,10.0,13.0,64,0.00,,BKN250,0.00,109.00,VWS V14.00,2013-01-22 17:40:00,
2013-01-22 12:45:00,73.2,60.7,30.06,NNE,30,11.0,12.0,65,0.00,,BKN250,0.00,146.00,VWS V14.00,2013-01-22 17:45:00,
2013-01-22 12:50:00,73.6,61.1,30.05,ENE,66,9.0,12.0,65,0.00,,BKN250,0.00,97.00,VWS V14.00,2013-01-22 17:50:00,
2013-01-22 12:55:00,73.5,60.6,30.05,NNE,32,10.0,14.0,64,0.00,,BKN250,0.00,93.00,VWS V14.00,2013-01-22 17:55:00,
2013-01-22 13:00:00,73.2,59.9,30.05,North,5,10.0,15.0,63,0.00,,BKN250,0.00,72.00,VWS V14.00,2013-01-22 18:00:00,
2013-01-22 13:05:00,73.1,60.2,30.05,ENE,58,10.0,13.0,64,0.00,,BKN250,0.00,81.00,VWS V14.00,2013-01-22 18:05:00,
2013-01-22 13:10:00,73.0,60.5,30.05,NE,41,6.0,6.0,65,0.00,,BKN250,0.00,79.00,VWS V14.00,2013-01-22 18:10:00,
2013-01-22 13:15:00,73.2,60.3,30.05,NNE,20,4.0,7.0,64,0.00,,BKN250,0.00,79.00,VWS V14.00,2013-01-22 18:15:00,
2013-01-22 13:20:00,73.3,60.4,30.05,NE,38,4.0,9.0,64,0.00,,BKN250,0.00,109.00,VWS V14.00,2013-01-22 18:20:00,
2013-01-22 13:25:00,73.3,60.4,30.04,NE,51,16.0,20.0,64,0.00,,BKN250,0.00,67.00,VWS V14.00,2013-01-22 18:25:00,
2013-01-22 13:30:00,73.1,60.2,30.04,ENE,65,7.0,8.0,64,0.00,,BKN250,0.00,67.00,VWS V14.00,2013-01-22 18:30:00,
2013-01-22 13:35:00,73.0,60.1,30.04,ENE,57,11.0,12.0,64,0.00,,BKN030,0.00,67.00,VWS V14.00,2013-01-22 18:35:00,
2013-01-22 13:40:00,72.9,59.6,30.04,ENE,77,15.0,15.0,63,0.00,,BKN030,0.00,127.00,VWS V14.00,2013-01-22 18:40:00,
2013-01-22 13:45:00,73.1,59.3,30.04,NNE,19,7.0,14.0,62,0.00,,BKN030,0.00,134.00,VWS V14.00,2013-01-22 18:45:00,
2013-01-22 13:50:00,73.6,59.8,30.04,North,11,9.0,13.0,62,0.00,,BKN030,0.00,134.00,VWS V14.00,2013-01-22 18:50:00,
2013-01-22 13:55:00,73.8,59.5,30.04,ENE,69,14.0,14.0,61,0.00,,BKN030,0.00,118.00,VWS V14.00,2013-01-22 18:55:00,
2013-01-22 14:00:00,73.7,59.9,30.04,ENE,61,7.0,12.0,62,0.00,,BKN030,0.00,134.00,VWS V14.00,2013-01-22 19:00:00,
2013-01-22 14:05:00,73.5,60.2,30.03,NE,49,11.0,13.0,63,0.00,,BKN030,0.00,123.00,VWS V14.00,2013-01-22 19:05:00,
2013-01-22 14:10:00,73.9,60.5,30.03,ENE,57,6.0,13.0,63,0.00,,BKN030,0.00,118.00,VWS V14.00,2013-01-22 19:10:00,
2013-01-22 14:15:00,73.7,60.3,30.03,NE,48,11.0,11.0,63,0.00,,BKN030,0.00,60.00,VWS V14.00,2013-01-22 19:15:00,
2013-01-22 14:20:00,72.8,59.5,30.03,NNE,31,6.0,11.0,63,0.00,,BKN030,0.00,62.00,VWS V14.00,2013-01-22 19:20:00,
2013-01-22 14:25:00,72.4,59.5,30.03,NNE,32,10.0,11.0,64,0.00,,BKN030,0.00,120.00,VWS V14.00,2013-01-22 19:25:00,
2013-01-22 14:30:00,72.6,60.2,30.03,ENE,67,6.0,12.0,65,0.00,,BKN030,0.00,118.00,VWS V14.00,2013-01-22 19:30:00,
2013-01-22 14:35:00,72.8,60.4,30.03,NNE,24,11.0,16.0,65,0.00,,BKN030,0.00,97.00,VWS V14.00,2013-01-22 19:35:00,
2013-01-22 14:40:00,72.7,60.3,30.03,NE,34,10.0,16.0,65,0.00,,BKN030,0.00,93.00,VWS V14.00,2013-01-22 19:40:00,
2013-01-22 14:45:00,72.7,60.7,30.04,ENE,62,4.0,5.0,66,0.00,,BKN030,0.00,105.00,VWS V14.00,2013-01-22 19:45:00,
2013-01-22 14:51:00,72.7,60.3,30.04,NE,50,7.0,10.0,65,0.00,,BKN030,0.00,77.00,VWS V14.00,2013-01-22 19:51:00,
2013-01-22 14:55:00,72.7,60.7,30.04,ENE,61,11.0,13.0,66,0.00,,BKN030,0.00,81.00,VWS V14.00,2013-01-22 19:55:00,
2013-01-22 15:00:00,72.7,60.3,30.05,NE,36,7.0,15.0,65,0.00,,BKN030,0.00,63.00,VWS V14.00,2013-01-22 20:00:00,
2013-01-22 15:05:00,72.3,60.3,30.05,NE,38,12.0,12.0,66,0.00,,BKN030,0.00,67.00,VWS V14.00,2013-01-22 20:05:00,
2013-01-22 15:10:00,72.2,60.7,30.05,NNE,30,5.0,8.0,67,0.00,,BKN030,0.00,69.00,VWS V14.00,2013-01-22 20:10:00,
2013-01-22 15:16:00,72.1,60.1,30.05,ENE,69,8.0,17.0,66,0.00,,BKN030,0.00,93.00,VWS V14.00,2013-01-22 20:16:00,
2013-01-22 15:21:00,72.3,60.3,30.04,North,11,16.0,16.0,66,0.00,,BKN030,0.00,109.00,VWS V14.00,2013-01-22 20:21:00,
2013-01-22 15:26:00,72.5,60.9,30.05,NNE,20,13.0,15.0,67,0.00,,BKN030,0.00,111.00,VWS V14.00,2013-01-22 20:26:00,
2013-01-22 15:31:00,72.6,60.6,30.05,ENE,77,10.0,14.0,66,0.00,,BKN030,0.00,51.00,VWS V14.00,2013-01-22 20:31:00,
2013-01-22 15:36:00,72.2,60.2,30.06,NE,53,8.0,16.0,66,0.00,,BKN030,0.00,37.00,VWS V14.00,2013-01-22 20:36:00,
2013-01-22 15:41:00,71.7,60.2,30.06,NNE,32,7.0,10.0,67,0.00,,BKN030,0.00,44.00,VWS V14.00,2013-01-22 20:41:00,
2013-01-22 15:46:00,71.4,59.9,30.06,NNE,15,12.0,12.0,67,0.00,,BKN030,0.00,51.00,VWS V14.00,2013-01-22 20:46:00,
2013-01-22 15:51:00,71.4,60.3,30.06,ENE,62,11.0,11.0,68,0.00,,BKN030,0.00,51.00,VWS V14.00,2013-01-22 20:51:00,
2013-01-22 15:56:00,71.4,59.9,30.06,NNE,15,11.0,16.0,67,0.00,,BKN030,0.00,95.00,VWS V14.00,2013-01-22 20:56:00,
2013-01-22 16:01:00,71.6,59.7,30.06,NE,53,13.0,17.0,66,0.00,,BKN030,0.00,77.00,VWS V14.00,2013-01-22 21:01:00,
2013-01-22 16:06:00,71.8,59.8,30.07,NNE,22,12.0,17.0,66,0.00,,BKN030,0.00,97.00,VWS V14.00,2013-01-22 21:06:00,
2013-01-22 16:11:00,71.8,59.8,30.07,ENE,61,4.0,12.0,66,0.00,,BKN030,0.00,91.00,VWS V14.00,2013-01-22 21:11:00,
2013-01-22 16:16:00,71.9,59.9,30.08,NNE,32,9.0,11.0,66,0.00,,BKN030,0.00,58.00,VWS V14.00,2013-01-22 21:16:00,
2013-01-22 16:21:00,71.5,59.6,30.07,North,9,11.0,14.0,66,0.00,,BKN030,0.00,46.00,VWS V14.00,2013-01-22 21:21:00,
2013-01-22 16:26:00,71.0,59.5,30.08,NE,46,4.0,13.0,67,0.00,,BKN030,0.00,33.00,VWS V14.00,2013-01-22 21:26:00,
2013-01-22 16:31:00,70.8,59.3,30.07,NNE,30,6.0,11.0,67,0.00,,BKN030,0.00,40.00,VWS V14.00,2013-01-22 21:31:00,
2013-01-22 16:33:00,70.7,59.6,30.07,North,11,8.0,9.0,68,0.00,,BKN030,0.00,40.00,VWS V14.00,2013-01-22 21:33:00,
2013-01-22 16:38:00,70.6,59.5,30.07,North,9,10.0,11.0,68,0.00,,BKN030,0.00,46.00,VWS V14.00,2013-01-22 21:38:00,
2013-01-22 16:43:00,70.5,59.4,30.08,ENE,58,10.0,11.0,68,0.00,,BKN030,0.00,30.00,VWS V14.00,2013-01-22 21:43:00,
2013-01-22 16:48:00,70.4,59.8,30.08,ENE,57,9.0,9.0,69,0.00,,BKN030,0.00,25.00,VWS V14.00,2013-01-22 21:48:00,
2013-01-22 16:53:00,70.3,59.7,30.08,NNE,22,9.0,11.0,69,0.00,,BKN030,0.00,23.00,VWS V14.00,2013-01-22 21:53:00,
2013-01-22 16:58:00,70.1,59.1,30.08,ENE,57,8.0,10.0,68,0.00,,BKN030,0.00,21.00,VWS V14.00,2013-01-22 21:58:00,
2013-01-22 17:03:00,70.0,59.0,30.08,North,11,10.0,13.0,68,0.00,,BKN030,0.00,18.00,VWS V14.00,2013-01-22 22:03:00,
2013-01-22 17:08:00,69.9,58.9,30.08,NE,49,15.0,16.0,68,0.00,,BKN030,0.00,19.00,VWS V14.00,2013-01-22 22:08:00,
2013-01-22 17:13:00,69.8,58.8,30.08,NNE,22,11.0,12.0,68,0.00,,BKN030,0.00,23.00,VWS V14.00,2013-01-22 22:13:00,
2013-01-22 17:19:00,69.7,59.1,30.08,NNE,24,11.0,12.0,69,0.00,,BKN030,0.00,16.00,VWS V14.00,2013-01-22 22:19:00,
2013-01-22 17:24:00,69.6,58.6,30.09,NE,45,9.0,9.0,68,0.00,,BKN030,0.00,11.00,VWS V14.00,2013-01-22 22:24:00,
2013-01-22 17:29:00,69.5,58.9,30.09,NE,36,7.0,12.0,69,0.00,,BKN030,0.00,5.00,VWS V14.00,2013-01-22 22:29:00,
2013-01-22 17:34:00,69.3,58.7,30.09,NE,36,10.0,15.0,69,0.00,,SCT035,0.00,0.00,VWS V14.00,2013-01-22 22:34:00,
2013-01-22 17:39:00,69.1,58.5,30.10,NE,41,4.0,8.0,69,0.00,,SCT035,0.00,0.00,VWS V14.00,2013-01-22 22:39:00,
2013-01-22 17:44:00,69.0,58.4,30.10,NE,37,1.0,7.0,69,0.00,,SCT035,0.00,0.00,VWS V14.00,2013-01-22 22:44:00,
2013-01-22 17:49:00,68.8,58.2,30.10,NNE,20,2.0,9.0,69,0.00,,SCT035,0.00,0.00,VWS V14.00,2013-01-22 22:49:00,
2013-01-22 17:54:00,68.7,58.5,30.10,NE,44,4.0,6.0,70,0.00,,SCT035,0.00,0.00,VWS V14.00,2013-01-22 22:54:00,
2013-01-22 17:59:00,68.6,58.0,30.10,NNE,21,10.0,12.0,69,0.00,,SCT035,0.00,0.00,VWS V14.00,2013-01-22 22:59:00,
2013-01-22 18:04:00,68.5,57.9,30.10,NNE,28,3.0,6.0,69,0.00,,SCT035,0.00,0.00,VWS V14.00,2013-01-22 23:04:00,
2013-01-22 18:09:00,68.5,57.9,30.10,NE,38,4.0,7.0,69,0.00,,SCT035,0.00,0.00,VWS V14.00,2013-01-22 23:09:00,
2013-01-22 18:14:00,68.4,57.4,30.10,NE,55,8.0,14.0,68,0.00,,SCT035,0.00,0.00,VWS V14.00,2013-01-22 23:14:00,
2013-01-22 18:19:00,68.3,57.3,30.10,NE,39,7.0,11.0,68,0.00,,SCT035,0.00,0.00,VWS V14.00,2013-01-22 23:19:00,
2013-01-22 18:24:00,68.2,57.2,30.10,NNE,27,2.0,5.0,68,0.00,,SCT035,0.00,0.00,VWS V14.00,2013-01-22 23:24:00,
2013-01-22 18:29:00,68.1,57.2,30.11,ENE,77,10.0,13.0,68,0.00,,SCT035,0.00,0.00,VWS V14.00,2013-01-22 23:29:00,
2013-01-22 18:34:00,68.0,57.5,30.10,NE,42,5.0,8.0,69,0.00,,SCT030,0.00,0.00,VWS V14.00,2013-01-22 23:34:00,
2013-01-22 18:39:00,67.9,57.4,30.10,NNE,33,5.0,8.0,69,0.00,,SCT030,0.00,0.00,VWS V14.00,2013-01-22 23:39:00,
2013-01-22 18:44:00,67.7,56.8,30.11,NE,35,3.0,8.0,68,0.00,,SCT030,0.00,0.00,VWS V14.00,2013-01-22 23:44:00,
2013-01-22 18:49:00,67.6,57.1,30.10,NNE,29,2.0,6.0,69,0.00,,SCT030,0.00,0.00,VWS V14.00,2013-01-22 23:49:00,
2013-01-22 18:54:00,67.4,56.5,30.11,NNE,28,5.0,11.0,68,0.00,,SCT030,0.00,0.00,VWS V14.00,2013-01-22 23:54:00,
2013-01-22 18:59:00,67.2,56.7,30.11,NE,35,6.0,7.0,69,0.00,,SCT030,0.00,0.00,VWS V14.00,2013-01-22 23:59:00,
2013-01-22 19:04:00,67.1,56.6,30.11,NNE,27,5.0,6.0,69,0.00,,SCT030,0.00,0.00,VWS V14.00,2013-01-23 00:04:00,
2013-01-22 19:09:00,67.0,56.5,30.11,NE,39,1.0,6.0,69,0.00,,SCT040,0.00,0.00,VWS V14.00,2013-01-23 00:09:00,
2013-01-22 19:14:00,67.0,56.5,30.11,NE,35,1.0,5.0,69,0.00,,SCT040,0.00,0.00,VWS V14.00,2013-01-23 00:14:00,
2013-01-22 19:19:00,66.8,56.3,30.12,NNE,33,5.0,6.0,69,0.00,,SCT040,0.00,0.00,VWS V14.00,2013-01-23 00:19:00,
2013-01-22 19:24:00,66.8,56.3,30.12,NNE,31,4.0,6.0,69,0.00,,SCT040,0.00,0.00,VWS V14.00,2013-01-23 00:24:00,
2013-01-22 19:29:00,66.7,56.2,30.12,NNE,28,1.0,5.0,69,0.00,,SCT040,0.00,0.00,VWS V14.00,2013-01-23 00:29:00,
2013-01-22 19:34:00,66.6,56.5,30.12,NNE,28,6.0,7.0,70,0.00,,SCT040,0.00,0.00,VWS V14.00,2013-01-23 00:34:00,
2013-01-22 19:39:00,66.6,56.5,30.12,NE,34,1.0,7.0,70,0.00,,SCT040,0.00,0.00,VWS V14.00,2013-01-23 00:39:00,
2013-01-22 19:44:00,66.5,56.4,30.12,NNE,32,4.0,6.0,70,0.00,,SCT040,0.00,0.00,VWS V14.00,2013-01-23 00:44:00,
2013-01-22 19:49:00,66.4,56.3,30.13,NNE,27,1.0,5.0,70,0.00,,SCT040,0.00,0.00,VWS V14.00,2013-01-23 00:49:00,
2013-01-22 19:54:00,66.3,56.6,30.12,NNE,27,2.0,4.0,71,0.00,,SCT040,0.00,0.00,VWS V14.00,2013-01-23 00:54:00,
2013-01-22 19:59:00,66.1,56.4,30.12,NNE,28,4.0,5.0,71,0.00,,SCT040,0.00,0.00,VWS V14.00,2013-01-23 00:59:00,
2013-01-22 20:04:00,66.1,56.4,30.12,NNE,30,3.0,3.0,71,0.00,,SCT040,0.00,0.00,VWS V14.00,2013-01-23 01:04:00,
2013-01-22 20:09:00,66.1,56.4,30.12,NE,34,0.0,3.0,71,0.00,,SCT040,0.00,0.00,VWS V14.00,2013-01-23 01:09:00,
2013-01-22 20:14:00,66.1,56.4,30.13,NE,34,0.0,4.0,71,0.00,,SCT040,0.00,0.00,VWS V14.00,2013-01-23 01:14:00,
2013-01-22 20:19:00,66.0,56.7,30.13,NE,34,2.0,5.0,72,0.00,,SCT040,0.00,0.00,VWS V14.00,2013-01-23 01:19:00,
2013-01-22 20:24:00,65.9,56.6,30.13,NE,34,0.0,2.0,72,0.00,,SCT040,0.00,0.00,VWS V14.00,2013-01-23 01:24:00,
2013-01-22 20:29:00,65.9,56.6,30.13,NNE,32,2.0,4.0,72,0.00,,SCT040,0.00,0.00,VWS V14.00,2013-01-23 01:29:00,
2013-01-22 20:34:00,65.8,56.5,30.14,NNE,32,0.0,0.0,72,0.00,,FEW060,0.00,0.00,VWS V14.00,2013-01-23 01:34:00,
2013-01-22 20:39:00,65.6,56.7,30.14,NNE,32,3.0,4.0,73,0.00,,FEW060,0.00,0.00,VWS V14.00,2013-01-23 01:39:00,
2013-01-22 20:44:00,65.4,56.5,30.14,NNE,32,0.0,1.0,73,0.00,,FEW060,0.00,0.00,VWS V14.00,2013-01-23 01:44:00,
2013-01-22 20:49:00,65.3,56.8,30.14,NNE,32,3.0,4.0,74,0.00,,FEW060,0.00,0.00,VWS V14.00,2013-01-23 01:49:00,
2013-01-22 20:54:00,65.1,56.6,30.14,NNE,32,0.0,1.0,74,0.00,,FEW060,0.00,0.00,VWS V14.00,2013-01-23 01:54:00,
2013-01-22 20:59:00,65.1,56.6,30.14,NNE,32,0.0,3.0,74,0.00,,FEW060,0.00,0.00,VWS V14.00,2013-01-23 01:59:00,
2013-01-22 21:05:00,65.0,56.5,30.15,NNE,32,2.0,2.0,74,0.00,,FEW060,0.00,0.00,VWS V14.00,2013-01-23 02:05:00,
2013-01-22 21:10:00,65.0,56.9,30.15,NNE,32,0.0,1.0,75,0.00,,FEW060,0.00,0.00,VWS V14.00,2013-01-23 02:10:00,
2013-01-22 21:15:00,64.9,56.8,30.15,NNE,32,0.0,3.0,75,0.00,,FEW060,0.00,0.00,VWS V14.00,2013-01-23 02:15:00,
2013-01-22 21:20:00,64.9,56.8,30.15,NNE,32,0.0,4.0,75,0.00,,FEW060,0.00,0.00,VWS V14.00,2013-01-23 02:20:00,
2013-01-22 21:25:00,64.9,56.8,30.16,NNE,32,0.0,0.0,75,0.00,,FEW060,0.00,0.00,VWS V14.00,2013-01-23 02:25:00,
2013-01-22 21:30:00,64.9,56.8,30.16,NNE,32,4.0,4.0,75,0.00,,FEW060,0.00,0.00,VWS V14.00,2013-01-23 02:30:00,
2013-01-22 21:35:00,64.9,56.8,30.16,NNE,32,0.0,2.0,75,0.00,,FEW070,0.00,0.00,VWS V14.00,2013-01-23 02:35:00,
2013-01-22 21:40:00,64.9,57.2,30.16,NNE,32,0.0,0.0,76,0.00,,FEW070,0.00,0.00,VWS V14.00,2013-01-23 02:40:00,
2013-01-22 21:45:00,64.9,57.2,30.16,NNE,32,0.0,0.0,76,0.00,,FEW070,0.00,0.00,VWS V14.00,2013-01-23 02:45:00,
2013-01-22 21:50:00,64.9,57.2,30.17,NNE,32,1.0,3.0,76,0.00,,FEW070,0.00,0.00,VWS V14.00,2013-01-23 02:50:00,
2013-01-22 21:55:00,64.8,57.1,30.17,NNE,32,0.0,0.0,76,0.00,,FEW070,0.00,0.00,VWS V14.00,2013-01-23 02:55:00,
2013-01-22 22:00:00,64.8,57.1,30.17,NNE,32,0.0,0.0,76,0.00,,FEW070,0.00,0.00,VWS V14.00,2013-01-23 03:00:00,
2013-01-22 22:05:00,64.8,57.1,30.17,NNE,32,0.0,0.0,76,0.00,,FEW070,0.00,0.00,VWS V14.00,2013-01-23 03:05:00,
2013-01-22 22:10:00,64.7,57.0,30.17,NNE,32,0.0,3.0,76,0.00,,FEW070,0.00,0.00,VWS V14.00,2013-01-23 03:10:00,
2013-01-22 22:15:00,64.6,57.2,30.17,NNE,32,0.0,1.0,77,0.00,,FEW070,0.00,0.00,VWS V14.00,2013-01-23 03:15:00,
2013-01-22 22:20:00,64.5,57.1,30.17,NNE,32,0.0,1.0,77,0.00,,FEW070,0.00,0.00,VWS V14.00,2013-01-23 03:20:00,
2013-01-22 22:25:00,64.3,57.0,30.17,NNE,32,0.0,0.0,77,0.00,,FEW070,0.00,0.00,VWS V14.00,2013-01-23 03:25:00,
2013-01-22 22:30:00,64.2,56.8,30.17,NNE,32,0.0,0.0,77,0.00,,FEW070,0.00,0.00,VWS V14.00,2013-01-23 03:30:00,
2013-01-22 22:35:00,64.1,57.1,30.17,NNE,32,0.0,1.0,78,0.00,,FEW070,0.00,0.00,VWS V14.00,2013-01-23 03:35:00,
2013-01-22 22:40:00,63.9,56.9,30.17,NNE,32,3.0,3.0,78,0.00,,FEW070,0.00,0.00,VWS V14.00,2013-01-23 03:40:00,
2013-01-22 22:45:00,63.7,57.1,30.17,NNE,32,0.0,1.0,79,0.00,,FEW070,0.00,0.00,VWS V14.00,2013-01-23 03:45:00,
2013-01-22 22:50:00,63.6,57.0,30.16,NNE,32,0.0,0.0,79,0.00,,FEW070,0.00,0.00,VWS V14.00,2013-01-23 03:50:00,
2013-01-22 22:55:00,63.4,56.8,30.16,NNE,32,0.0,2.0,79,0.00,,FEW070,0.00,0.00,VWS V14.00,2013-01-23 03:55:00,
2013-01-22 23:00:00,63.6,56.3,30.16,NNE,32,2.0,4.0,77,0.00,,FEW070,0.00,0.00,VWS V14.00,2013-01-23 04:00:00,
2013-01-22 23:05:00,64.4,55.9,30.16,NNE,32,3.0,4.0,74,0.00,,FEW070,0.00,0.00,VWS V14.00,2013-01-23 04:05:00,
2013-01-22 23:10:00,65.2,56.0,30.16,NE,36,0.0,4.0,72,0.00,,FEW070,0.00,0.00,VWS V14.00,2013-01-23 04:10:00,
2013-01-22 23:15:00,65.6,56.0,30.17,NE,38,0.0,3.0,71,0.00,,FEW070,0.00,0.00,VWS V14.00,2013-01-23 04:15:00,
2013-01-22 23:20:00,65.9,55.5,30.17,NE,38,3.0,4.0,69,0.00,,FEW070,0.00,0.00,VWS V14.00,2013-01-23 04:20:00,
2013-01-22 23:25:00,66.0,55.5,30.16,NE,46,3.0,6.0,69,0.00,,FEW070,0.00,0.00,VWS V14.00,2013-01-23 04:25:00,
2013-01-22 23:30:00,66.1,55.2,30.16,NE,46,0.0,3.0,68,0.00,,FEW070,0.00,0.00,VWS V14.00,2013-01-23 04:30:00,
2013-01-22 23:35:00,66.1,55.2,30.16,NE,46,3.0,4.0,68,0.00,,FEW070,0.00,0.00,VWS V14.00,2013-01-23 04:35:00,
2013-01-22 23:40:00,66.3,55.4,30.16,NE,46,0.0,3.0,68,0.00,,FEW070,0.00,0.00,VWS V14.00,2013-01-23 04:40:00,
2013-01-22 23:45:00,66.3,55.4,30.16,NE,46,2.0,5.0,68,0.00,,FEW070,0.00,0.00,VWS V14.00,2013-01-23 04:45:00,
2013-01-22 23:50:00,66.4,55.1,30.16,NE,47,3.0,6.0,67,0.00,,FEW070,0.00,0.00,VWS V14.00,2013-01-23 04:50:00,
2013-01-22 23:55:00,66.5,55.2,30.16,NE,53,4.0,4.0,67,0.00,,FEW070,0.00,0.00,VWS V14.00,2013-01-23 04:55:00,